N256VM SCVM-SCEL

Flight info

Callsign N256VM
Flight time 0h 25m
Altitude 10000
Route VM020 DCT OLMUE DCT EL222 DCT TEMUS
Aircraft S22T/L-SDGRY/S

Departure

Time 2026-04-26 23:11
Airport Viña del Mar Airport (SCVM)

Arrival

Time 2026-04-26 23:37
Airport Comodoro Arturo Merino Benítez International Airport (SCEL)
Time Latitude Longitude Altitude Speed Heading
2026-04-26 22:49 -32.95540 -71.48361 461 ft 0 kts 40°
2026-04-26 23:10 -32.95487 -71.48473 461 ft 35 kts 275°
2026-04-26 23:10 -32.95393 -71.48574 459 ft 13 kts 79°
2026-04-26 23:11 -32.95223 -71.48272 460 ft 82 kts 53°
2026-04-26 23:11 -32.94776 -71.47568 563 ft 120 kts 52°
2026-04-26 23:11 -32.94250 -71.46844 997 ft 111 kts 54°
2026-04-26 23:11 -32.93659 -71.46199 1226 ft 123 kts 44°
2026-04-26 23:12 -32.92983 -71.45470 1400 ft 136 kts 52°
2026-04-26 23:12 -32.92611 -71.44476 1643 ft 132 kts 82°
2026-04-26 23:12 -32.92361 -71.43427 1895 ft 133 kts 84°
2026-04-26 23:12 -32.92211 -71.42344 2164 ft 132 kts 88°
2026-04-26 23:13 -32.92072 -71.41252 2455 ft 133 kts 87°
2026-04-26 23:13 -32.91935 -71.40174 2744 ft 133 kts 87°
2026-04-26 23:13 -32.91796 -71.39082 3075 ft 133 kts 86°
2026-04-26 23:13 -32.91656 -71.38002 3387 ft 132 kts 86°
2026-04-26 23:14 -32.91516 -71.36925 3700 ft 133 kts 86°
2026-04-26 23:14 -32.91374 -71.35827 4008 ft 134 kts 86°
2026-04-26 23:14 -32.91232 -71.34743 4332 ft 134 kts 85°
2026-04-26 23:14 -32.91086 -71.33642 4648 ft 134 kts 86°
2026-04-26 23:15 -32.90944 -71.32555 4946 ft 134 kts 85°
2026-04-26 23:15 -32.90799 -71.31446 5232 ft 135 kts 85°
2026-04-26 23:15 -32.90651 -71.30331 5524 ft 137 kts 85°
2026-04-26 23:15 -32.90504 -71.29213 5815 ft 138 kts 85°
2026-04-26 23:16 -32.90354 -71.28070 6099 ft 140 kts 85°
2026-04-26 23:16 -32.90204 -71.26928 6390 ft 141 kts 84°
2026-04-26 23:16 -32.90050 -71.25758 6682 ft 143 kts 84°
2026-04-26 23:16 -32.89896 -71.24597 6971 ft 144 kts 84°
2026-04-26 23:17 -32.89740 -71.23413 7276 ft 144 kts 84°
2026-04-26 23:17 -32.89586 -71.22241 7576 ft 145 kts 84°
2026-04-26 23:17 -32.89428 -71.21047 7878 ft 145 kts 84°
2026-04-26 23:17 -32.89272 -71.19869 8183 ft 146 kts 84°
2026-04-26 23:18 -32.89113 -71.18668 8494 ft 146 kts 84°
2026-04-26 23:18 -32.88954 -71.17480 8812 ft 147 kts 84°
2026-04-26 23:18 -32.88794 -71.16272 9137 ft 148 kts 84°
2026-04-26 23:18 -32.88628 -71.15009 9223 ft 164 kts 83°
2026-04-26 23:19 -32.88451 -71.13627 9232 ft 176 kts 83°
2026-04-26 23:19 -32.88260 -71.12147 9235 ft 183 kts 83°
2026-04-26 23:19 -32.88058 -71.10623 9235 ft 188 kts 83°
2026-04-26 23:19 -32.87853 -71.09098 9227 ft 186 kts 83°
2026-04-26 23:20 -32.87649 -71.07614 9323 ft 179 kts 83°
2026-04-26 23:20 -32.87458 -71.06250 9477 ft 151 kts 83°
2026-04-26 23:20 -32.87301 -71.05128 9598 ft 124 kts 84°
2026-04-26 23:20 -32.87164 -71.04116 9741 ft 132 kts 83°
2026-04-26 23:21 -32.87023 -71.03035 9915 ft 136 kts 83°
2026-04-26 23:21 -32.87017 -71.01988 10022 ft 133 kts 107°
2026-04-26 23:21 -32.87535 -71.00972 10044 ft 154 kts 133°
2026-04-26 23:21 -32.88292 -70.99990 10045 ft 170 kts 133°
2026-04-26 23:22 -32.89092 -70.98893 10049 ft 179 kts 131°
2026-04-26 23:22 -32.89887 -70.97736 10042 ft 185 kts 130°
2026-04-26 23:22 -32.90705 -70.96528 10045 ft 186 kts 131°
2026-04-26 23:22 -32.91447 -70.95432 10033 ft 159 kts 130°
2026-04-26 23:23 -32.92085 -70.94480 10021 ft 138 kts 131°
2026-04-26 23:23 -32.92639 -70.93667 10018 ft 122 kts 131°
2026-04-26 23:23 -32.93137 -70.92938 10016 ft 108 kts 132°
2026-04-26 23:23 -32.93589 -70.92284 10003 ft 97 kts 132°
2026-04-26 23:24 -32.94000 -70.91693 9962 ft 90 kts 132°
2026-04-26 23:24 -32.94457 -70.91039 10053 ft 117 kts 131°
2026-04-26 23:24 -32.95031 -70.90216 10123 ft 141 kts 131°
2026-04-26 23:24 -32.95662 -70.89312 10165 ft 160 kts 131°
2026-04-26 23:25 -32.96431 -70.88209 10117 ft 169 kts 131°
2026-04-26 23:25 -32.97187 -70.87119 10063 ft 175 kts 130°
2026-04-26 23:25 -32.97986 -70.85967 10055 ft 183 kts 130°
2026-04-26 23:25 -32.98804 -70.84789 10056 ft 187 kts 130°
2026-04-26 23:26 -32.99638 -70.83589 10051 ft 190 kts 132°
2026-04-26 23:26 -33.00644 -70.82647 10051 ft 175 kts 157°
2026-04-26 23:26 -33.01728 -70.82280 10037 ft 150 kts 173°
2026-04-26 23:26 -33.02699 -70.82211 10031 ft 130 kts 179°
2026-04-26 23:27 -33.03538 -70.82178 10019 ft 114 kts 179°
2026-04-26 23:27 -33.04312 -70.82148 9931 ft 107 kts 179°
2026-04-26 23:27 -33.05033 -70.82120 9725 ft 112 kts 179°
2026-04-26 23:27 -33.05580 -70.82098 9483 ft 123 kts 178°
2026-04-26 23:28 -33.06778 -70.82045 9029 ft 135 kts 178°
2026-04-26 23:28 -33.07744 -70.81996 8688 ft 140 kts 178°
2026-04-26 23:28 -33.08729 -70.81944 8345 ft 144 kts 177°
2026-04-26 23:28 -33.09741 -70.81890 7994 ft 146 kts 177°
2026-04-26 23:29 -33.10769 -70.81834 7645 ft 148 kts 177°
2026-04-26 23:29 -33.11794 -70.81776 7301 ft 150 kts 177°
2026-04-26 23:29 -33.12843 -70.81720 6949 ft 151 kts 177°
2026-04-26 23:29 -33.13892 -70.81663 6604 ft 151 kts 177°
2026-04-26 23:30 -33.14930 -70.81606 6243 ft 151 kts 177°
2026-04-26 23:30 -33.15975 -70.81546 5872 ft 151 kts 176°
2026-04-26 23:30 -33.17031 -70.81486 5509 ft 151 kts 177°
2026-04-26 23:30 -33.18083 -70.81430 5148 ft 151 kts 177°
2026-04-26 23:31 -33.19100 -70.81378 4928 ft 142 kts 176°
2026-04-26 23:31 -33.20058 -70.81324 4755 ft 132 kts 176°
2026-04-26 23:31 -33.20940 -70.81274 4584 ft 127 kts 176°
2026-04-26 23:31 -33.21824 -70.81226 4420 ft 126 kts 176°
2026-04-26 23:32 -33.22693 -70.81179 4263 ft 125 kts 176°
2026-04-26 23:32 -33.23566 -70.81127 4111 ft 125 kts 176°
2026-04-26 23:32 -33.24435 -70.81079 3964 ft 126 kts 176°
2026-04-26 23:32 -33.25304 -70.81032 3812 ft 126 kts 176°
2026-04-26 23:33 -33.26145 -70.80984 3668 ft 123 kts 176°
2026-04-26 23:33 -33.26999 -70.80935 3515 ft 122 kts 176°
2026-04-26 23:33 -33.27835 -70.80888 3371 ft 121 kts 176°
2026-04-26 23:33 -33.28689 -70.80841 3224 ft 121 kts 177°
2026-04-26 23:34 -33.29497 -70.80800 3058 ft 114 kts 177°
2026-04-26 23:34 -33.30280 -70.80755 2893 ft 109 kts 176°
2026-04-26 23:34 -33.31016 -70.80712 2756 ft 104 kts 176°
2026-04-26 23:34 -33.31737 -70.80672 2640 ft 103 kts 176°
2026-04-26 23:35 -33.32439 -70.80637 2532 ft 100 kts 176°
2026-04-26 23:35 -33.33128 -70.80603 2426 ft 105 kts 175°
2026-04-26 23:35 -33.33911 -70.80556 2359 ft 118 kts 175°
2026-04-26 23:35 -33.34735 -70.80512 2288 ft 116 kts 176°
2026-04-26 23:36 -33.35530 -70.80466 2105 ft 117 kts 175°
2026-04-26 23:36 -33.36353 -70.80407 1878 ft 112 kts 176°
2026-04-26 23:36 -33.37100 -70.80368 1597 ft 105 kts 177°
2026-04-26 23:36 -33.37754 -70.80336 1554 ft 83 kts 179°
2026-04-26 23:37 -33.38264 -70.80312 1555 ft 65 kts 176°
2026-04-26 23:37 -33.38668 -70.80280 1556 ft 52 kts 176°
2026-04-26 23:37 -33.39000 -70.80277 1555 ft 43 kts 182°
2026-04-26 23:37 -33.39272 -70.80232 1554 ft 37 kts 159°
2026-04-26 23:38 -33.39451 -70.80113 1554 ft 15 kts 147°
2026-04-26 23:38 -33.39472 -70.80096 1554 ft 0 kts 146°
2026-04-26 23:39 -33.39524 -70.80033 1554 ft 13 kts 113°
2026-04-26 23:39 -33.39532 -70.80000 1554 ft 12 kts 102°
2026-04-26 23:39 -33.39535 -70.79848 1555 ft 7 kts 75°
2026-04-26 23:39 -33.39528 -70.79763 1555 ft 13 kts 94°
2026-04-26 23:40 -33.39530 -70.79642 1555 ft 16 kts 90°
2026-04-26 23:40 -33.39518 -70.79499 1556 ft 20 kts 85°
2026-04-26 23:40 -33.39508 -70.79301 1556 ft 23 kts 86°
2026-04-26 23:40 -33.39503 -70.79171 1557 ft 0 kts 84°
2026-04-26 23:41 -33.39502 -70.79163 1557 ft 0 kts 84°
2026-04-26 23:43 -33.39496 -70.79098 1557 ft 16 kts 89°
2026-04-26 23:43 -33.39492 -70.78950 1557 ft 19 kts 87°
2026-04-26 23:44 -33.39377 -70.78895 1557 ft 23 kts
2026-04-26 23:44 -33.39200 -70.78914 1557 ft 27 kts 353°
2026-04-26 23:44 -33.39033 -70.78931 1556 ft 3 kts 358°
2026-04-26 23:46 -33.39022 -70.78990 1556 ft 22 kts 268°
2026-04-26 23:46 -33.39029 -70.79137 1556 ft 0 kts 265°
2026-04-26 23:47 -33.39030 -70.79152 1556 ft 12 kts 270°
2026-04-26 23:48 -33.38958 -70.79328 1556 ft 28 kts 300°
2026-04-26 23:48 -33.38889 -70.79447 1555 ft 6 kts 22°
2026-04-26 23:48 -33.38880 -70.79430 1555 ft 0 kts 80°